Wind_Speed
14 19 16 10 2 14 9 10 9 6 18 8 3 3 14 17 12 10 16 23 26 26 21 28 19 16 32 16 24 8 11 11 9 11 12 14 16 15 16 17 14 15 17 13
17 16 11 8 13 22 16 13 4 8 22 9 1 4 11 14 11 10 13 19 24 21 25 21 4 6 11 11 11 10 8 8 6 9 12 13 17 17 18 18 17 16 15 15
14 5 11 9 22 18 13 4 6 12 15 7 4 12 21 11 8 6 13 20 23 20 17 12 12 11 7 7 11 10 9 6 8 10 13 15 17 21 21 22 20 19 17 20
11 11 13 17 18 11 4 12 13 24 11 9 8 20 16 15 3 3 20 18 21 20 15 8 13 12 13 12 9 8 9 8 10 14 13 16 18 21 25 24 24 22 23 14
14 16 17 18 12 10 10 16 20 11 10 5 20 24 24 21 10 9 10 20 18 17 15 13 12 12 13 13 13 12 12 10 13 18 21 16 16 25 29 27 27 23 25 26
16 12 16 14 12 12 16 12 5 6 5 6 17 25 26 9 13 19 18 19 17 14 12 11 11 12 11 11 12 12 12 13 15 17 19 20 20 24 26 31 31 25 27 28
16 14 13 12 13 11 7 7 4 10 11 13 19 16 18 17 20 14 22 21 17 14 11 11 12 11 12 13 14 15 16 17 18 20 24 25 27 28 27 31 35 35 28 28
7 11 4 7 12 13 7 6 10 15 10 15 15 32 16 10 16 14 21 20 17 15 13 13 13 14 14 15 16 17 19 20 21 23 25 28 31 31 21 24 26 28 35 33
12 13 13 20 11 10 8 9 10 18 12 18 12 19 16 10 7 14 17 16 17 17 17 17 15 14 15 17 17 16 19 21 23 25 27 29 30 31 14 20 25 24 39 32
15 10 11 10 11 15 16 12 4 8 20 18 13 27 29 7 7 16 15 17 18 17 18 20 19 19 18 17 19 20 16 21 25 26 27 29 31 26 10 7 12 15 36 35
18 12 24 12 14 7 5 11 7 10 17 26 28 23 5 5 16 22 22 22 23 20 19 19 20 19 20 21 19 19 18 23 25 27 27 27 29 27 23 10 11 12 12 30
18 11 17 7 9 12 17 17 19 14 23 11 14 25 10 7 16 26 25 21 24 25 24 24 24 22 21 22 22 21 20 23 23 24 24 25 25 26 26 16 14 22 23 24
20 24 13 20 18 11 13 8 13 12 8 12 9 8 8 24 28 26 31 25 20 25 25 25 26 25 21 22 22 21 21 22 23 22 21 22 23 20 16 21 9 13 20 21
25 20 13 23 24 26 16 15 13 12 9 10 14 11 17 25 21 17 17 24 25 23 25 24 29 24 22 22 20 21 21 20 21 21 20 20 21 20 17 12 14 12 6 4
24 18 16 32 30 21 20 17 7 9 11 16 21 14 23 28 34 25 28 27 28 29 29 26 28 26 24 24 21 20 20 20 20 21 21 22 20 21 18 15 12 11 13 9
23 22 30 32 27 28 12 17 11 12 11 12 12 17 28 35 39 38 32 30 30 28 30 29 30 27 25 26 25 20 20 23 23 23 23 22 21 22 22 19 17 14 14 13
18 15 19 27 27 17 17 19 17 13 16 23 17 23 30 32 32 31 29 31 31 30 29 32 29 25 26 28 26 25 23 24 24 24 24 23 21 19 19 20 18 18 18 17
13 28 33 35 28 23 16 34 29 5 22 25 27 25 37 34 28 31 30 33 31 31 31 33 32 28 28 30 28 23 23 23 22 24 25 26 23 21 19 18 19 19 20 20
33 36 34 35 32 30 17 21 16 5 17 17 25 32 33 27 26 30 30 34 32 31 30 29 30 31 32 34 32 27 27 29 26 25 27 24 25 24 21 21 22 22 23 23
24 30 30 28 35 29 12 14 9 18 21 27 27 28 30 24 24 30 28 36 27 29 29 28 29 33 36 34 28 28 28 28 26 26 24 25 25 25 24 23 23 24 23 24
33 26 13 15 9 5 22 16 26 22 26 25 26 28 31 33 25 24 24 34 31 32 30 29 30 30 33 36 36 34 34 32 29 31 29 29 30 29 27 26 25 25 25 25
43 35 18 13 12 22 22 25 29 29 25 25 25 25 27 27 36 27 32 37 35 33 29 33 35 36 36 39 38 34 35 37 35 34 31 32 33 34 34 31 29 27 27 26
4 13 12 23 25 24 27 29 29 24 27 27 30 29 28 35 38 30 31 15 31 33 35 35 35 38 39 40 38 37 36 39 38 36 35 36 35 35 35 34 33 33 31 30
10 17 25 25 27 31 38 32 31 33 32 35 31 30 30 32 39 35 37 41 37 36 36 37 39 41 40 41 41 39 36 36 36 37 37 39 39 39 39 37 37 35 34 35
29 33 34 33 29 34 34 33 33 33 30 33 35 33 32 32 34 38 39 39 38 38 40 41 44 45 43 42 42 43 43 42 41 42 42 41 42 42 42 41 38 37 36 37
30 28 33 28 37 34 32 30 32 32 32 33 35 35 34 34 35 37 39 40 42 44 46 47 46 46 45 45 44 45 45 46 45 44 44 43 44 44 43 42 41 40 40 39
Wind_Direction
176 174 160 120 144 254 221 206 232 283 281 314 167 258 289 313 324 331 356 1 344 343 357 340 311 337 315 2 292 350 294 261 256 258 271 254 259 261 261 255 237 245 263 278
166 183 160 203 242 230 256 243 295 292 292 283 82 253 266 309 320 328 340 337 349 342 340 347 325 353 13 346 352 356 310 290 288 284 281 274 260 259 259 256 249 243 251 273
171 243 194 213 245 225 218 246 262 245 270 283 292 247 256 225 192 310 321 329 343 348 343 358 353 358 4 357 0 359 354 318 298 297 292 283 270 262 255 253 250 252 244 250
201 165 233 227 214 218 176 256 239 253 261 271 241 272 284 260 156 19 322 341 341 348 341 341 342 345 334 342 345 6 354 328 299 303 288 274 276 267 260 250 245 241 246 242
204 168 243 218 217 238 225 263 250 253 260 257 249 259 275 342 263 338 335 335 353 347 354 348 346 342 336 333 337 342 343 349 341 338 344 305 270 266 262 256 252 244 248 247
184 243 218 222 227 225 247 240 252 274 261 264 295 301 316 338 344 341 338 336 348 350 352 5 5 3 359 348 337 332 332 334 335 335 334 339 316 294 272 256 242 237 236 250
190 206 224 229 230 242 231 171 304 277 265 252 263 285 295 313 328 338 331 335 335 340 353 354 5 4 7 2 355 352 348 343 337 330 329 333 332 316 290 266 262 255 241 238
234 241 262 294 230 204 262 231 266 286 274 323 321 249 217 349 336 309 323 325 321 327 344 351 356 359 356 354 351 353 355 350 346 342 337 336 330 322 288 259 244 260 232 240
238 282 265 281 217 234 203 240 294 274 292 280 214 252 162 163 294 303 316 316 311 319 334 338 338 340 341 344 346 337 343 345 344 341 339 341 339 327 270 242 231 239 222 227
182 237 230 257 237 233 224 238 245 274 261 265 267 243 254 26 319 311 315 312 308 313 325 332 334 335 336 339 339 344 338 343 342 338 336 343 347 343 231 248 242 245 224 232
173 217 220 195 244 209 252 209 265 264 256 251 255 300 204 1 330 319 321 314 305 309 316 330 334 334 334 338 341 337 324 331 335 335 335 343 347 359 345 245 222 216 223 229
208 181 262 244 265 231 186 233 236 234 239 337 311 306 321 335 305 305 310 307 304 310 319 329 330 332 333 338 340 340 336 328 333 332 336 339 348 359 357 357 248 191 200 210
199 185 244 226 179 229 221 224 272 260 304 309 289 271 335 296 298 305 299 293 295 302 313 316 326 325 328 336 336 335 332 326 327 333 332 337 342 349 7 0 338 269 272 272
202 203 230 261 256 209 190 214 260 256 260 257 309 354 299 300 298 303 302 293 293 295 306 317 318 317 319 328 329 326 325 324 324 328 328 329 331 338 342 349 352 342 1 318
212 201 218 266 274 245 194 195 275 280 268 247 224 257 285 285 285 286 293 290 292 297 301 308 314 310 309 319 324 322 322 325 324 322 318 317 319 319 324 326 320 311 316 310
215 210 218 241 262 238 221 232 278 268 281 287 284 266 260 269 273 281 289 289 286 292 299 305 309 303 301 314 316 314 313 318 318 319 319 317 312 307 309 309 305 300 292 285
211 214 241 262 267 263 176 236 241 260 244 257 273 270 273 272 279 283 281 282 284 288 294 300 301 296 299 307 309 306 311 314 316 322 326 324 319 313 305 296 292 293 291 289
189 227 240 243 239 223 208 240 237 246 249 267 276 268 278 288 285 274 278 278 282 289 296 299 300 300 303 302 304 292 299 305 308 315 323 324 322 316 307 301 295 292 290 288
215 233 235 239 251 247 230 237 241 199 264 265 287 268 280 287 284 279 276 278 282 285 290 297 296 299 302 304 303 299 299 306 304 308 311 313 318 316 308 299 293 292 290 287
218 247 241 261 264 246 267 310 231 255 292 275 277 275 287 294 282 285 296 275 287 291 293 296 299 305 307 306 298 290 291 294 299 301 306 310 310 309 306 297 293 291 289 285
237 231 228 264 276 299 262 233 255 270 269 270 274 282 286 287 292 287 281 303 291 294 293 292 292 297 297 296 296 295 293 296 303 299 305 311 312 309 306 303 296 292 289 287
228 226 211 235 255 246 255 251 260 268 284 280 279 277 278 294 282 291 286 284 286 290 292 291 294 296 296 296 293 289 284 285 290 293 300 304 304 305 304 303 298 293 289 286
261 286 256 239 248 256 258 268 264 280 283 272 274 278 277 281 288 292 293 265 288 290 288 290 292 295 296 292 293 290 287 287 289 291 294 296 298 299 299 297 296 295 292 289
349 250 261 259 249 264 278 279 269 271 274 278 278 272 278 278 281 285 277 286 288 289 291 294 297 296 296 295 293 293 290 288 290 291 293 294 294 295 295 295 291 290 289 290
251 265 275 278 269 266 265 268 267 272 274 274 273 278 278 277 279 281 283 285 288 290 294 295 295 297 293 292 293 292 291 291 290 289 289 290 291 292 291 290 285 283 285 288
277 277 274 268 275 273 278 278 269 269 272 271 275 277 277 278 279 281 284 288 290 294 294 295 295 294 294 293 291 290 288 288 289 288 287 287 287 287 287 285 283 284 284 284
Height
5916 5920 5923 5929 5938 5934 5936 5938 5939 5940 5936 5935 5935 5938 5934 5931 5930 5926 5923 5921 5915 5911 5911 5908 5900 5899 5886 5888 5889 5887 5898 5899 5900 5902 5903 5904 5906 5907 5908 5910 5910 5911 5908 5911
5916 5920 5924 5931 5932 5933 5934 5936 5939 5941 5936 5934 5933 5936 5933 5932 5929 5926 5923 5921 5919 5916 5909 5907 5905 5904 5902 5901 5901 5896 5897 5898 5899 5900 5901 5901 5902 5902 5903 5905 5907 5908 5908 5906
5916 5924 5925 5931 5929 5930 5932 5935 5939 5940 5935 5934 5933 5931 5925 5919 5916 5923 5922 5919 5917 5914 5911 5908 5905 5902 5903 5902 5898 5897 5897 5898 5898 5898 5898 5897 5897 5897 5898 5899 5901 5904 5906 5905
5918 5925 5927 5925 5927 5930 5933 5936 5934 5932 5932 5932 5925 5931 5924 5918 5920 5921 5921 5919 5915 5913 5911 5909 5906 5904 5902 5899 5900 5900 5900 5898 5896 5894 5894 5894 5893 5892 5892 5893 5895 5898 5896 5865
5919 5921 5923 5923 5925 5927 5930 5930 5928 5928 5930 5931 5926 5928 5922 5922 5925 5922 5920 5918 5915 5914 5912 5910 5908 5905 5904 5902 5900 5899 5898 5897 5895 5892 5890 5886 5888 5887 5886 5888 5890 5895 5894 5895
5917 5920 5921 5922 5922 5924 5924 5925 5926 5926 5929 5930 5921 5921 5920 5919 5922 5914 5920 5918 5915 5915 5913 5910 5908 5906 5904 5902 5901 5898 5897 5896 5894 5890 5889 5887 5884 5882 5880 5880 5882 5884 5887 5888
5914 5916 5918 5919 5921 5924 5923 5924 5927 5930 5931 5931 5927 5921 5918 5918 5919 5918 5917 5917 5916 5915 5914 5911 5908 5907 5905 5903 5900 5897 5895 5892 5890 5887 5885 5882 5881 5877 5872 5872 5872 5855 5875 5886
5914 5916 5917 5918 5918 5922 5923 5926 5929 5927 5927 5920 5924 5908 5911 5916 5918 5919 5917 5916 5916 5915 5913 5911 5908 5906 5904 5902 5899 5896 5894 5891 5887 5884 5881 5877 5873 5868 5862 5864 5867 5866 5866 5875
5919 5919 5920 5916 5916 5918 5920 5922 5927 5924 5924 5926 5920 5915 5901 5906 5917 5918 5915 5915 5915 5913 5911 5909 5907 5905 5903 5901 5898 5896 5892 5889 5886 5881 5878 5874 5867 5859 5853 5854 5858 5862 5865 5875
5914 5919 5918 5918 5917 5918 5918 5921 5923 5926 5921 5918 5917 5914 5911 5907 5915 5915 5914 5911 5913 5912 5910 5908 5905 5902 5901 5899 5897 5894 5891 5888 5884 5880 5875 5871 5864 5855 5845 5844 5852 5853 5858 5864
5909 5916 5916 5915 5916 5917 5919 5918 5921 5923 5917 5913 5909 5906 5904 5910 5912 5913 5912 5910 5909 5909 5909 5907 5904 5901 5899 5897 5895 5892 5889 5886 5883 5878 5873 5868 5863 5857 5851 5848 5847 5852 5856 5859
5907 5913 5906 5914 5915 5916 5917 5917 5918 5918 5910 5910 5912 5907 5906 5908 5911 5912 5908 5910 5908 5906 5906 5904 5901 5899 5897 5895 5892 5889 5886 5883 5880 5876 5871 5867 5863 5858 5854 5852 5851 5850 5854 5854
5903 5906 5910 5909 5908 5913 5914 5917 5918 5912 5917 5916 5913 5902 5902 5906 5906 5906 5903 5906 5907 5904 5903 5902 5899 5896 5895 5892 5889 5887 5883 5880 5876 5874 5871 5867 5864 5862 5859 5858 5855 5855 5855 5855
5898 5903 5908 5900 5903 5901 5909 5913 5913 5913 5915 5914 5911 5909 5904 5900 5901 5905 5903 5901 5901 5902 5900 5900 5895 5894 5891 5890 5887 5884 5881 5878 5875 5871 5869 5866 5862 5860 5858 5857 5858 5856 5854 5855
5894 5899 5904 5891 5894 5897 5903 5907 5909 5909 5908 5909 5911 5910 5902 5897 5896 5900 5902 5900 5898 5897 5896 5895 5892 5889 5887 5885 5883 5881 5878 5876 5873 5870 5867 5864 5862 5858 5857 5856 5855 5856 5855 5855
5890 5893 5894 5894 5897 5898 5900 5904 5906 5906 5906 5906 5906 5904 5899 5897 5897 5896 5896 5895 5893 5893 5891 5891 5887 5884 5882 5880 5878 5877 5875 5872 5869 5867 5864 5861 5859 5856 5854 5853 5853 5852 5852 5852
5887 5892 5893 5891 5888 5888 5889 5896 5902 5903 5901 5901 5902 5895 5893 5894 5894 5892 5891 5889 5888 5887 5887 5883 5883 5881 5878 5875 5873 5871 5869 5868 5865 5862 5860 5857 5855 5853 5850 5849 5849 5848 5848 5848
5887 5884 5884 5882 5884 5883 5891 5888 5890 5889 5895 5896 5895 5892 5885 5885 5888 5885 5885 5881 5881 5881 5880 5878 5874 5873 5872 5868 5867 5866 5864 5863 5862 5859 5856 5853 5851 5849 5847 5846 5844 5843 5842 5842
5879 5876 5877 5880 5881 5881 5882 5881 5885 5880 5888 5888 5888 5882 5881 5881 5880 5878 5878 5874 5874 5873 5873 5872 5868 5865 5864 5861 5859 5858 5857 5855 5855 5853 5851 5849 5846 5844 5842 5840 5839 5838 5837 5836
5871 5870 5875 5875 5878 5880 5884 5871 5877 5881 5884 5880 5878 5877 5874 5875 5875 5873 5870 5867 5869 5866 5865 5864 5862 5858 5855 5853 5853 5851 5850 5848 5846 5846 5845 5842 5840 5838 5836 5834 5832 5831 5830 5830
5866 5864 5870 5872 5872 5875 5867 5876 5872 5877 5876 5874 5873 5872 5870 5866 5871 5870 5855 5840 5860 5858 5858 5857 5855 5855 5852 5849 5846 5844 5842 5840 5840 5837 5835 5833 5831 5829 5828 5826 5824 5823 5822 5821
5856 5858 5864 5867 5867 5869 5867 5866 5868 5868 5868 5868 5868 5867 5864 5860 5860 5864 5861 5852 5851 5849 5851 5850 5848 5846 5845 5841 5839 5838 5835 5833 5833 5831 5828 5825 5824 5821 5818 5818 5816 5815 5814 5813
5845 5849 5855 5863 5860 5861 5861 5859 5860 5861 5861 5862 5860 5860 5861 5854 5851 5857 5839 5824 5845 5843 5843 5843 5841 5838 5836 5833 5831 5829 5827 5824 5823 5821 5818 5816 5815 5813 5811 5809 5807 5805 5803 5802
5836 5847 5852 5856 5857 5852 5848 5853 5855 5853 5854 5851 5852 5852 5852 5850 5843 5846 5845 5839 5838 5836 5836 5834 5832 5829 5827 5823 5820 5817 5816 5814 5813 5811 5809 5806 5804 5803 5801 5799 5797 5796 5794 5791
5843 5842 5841 5844 5847 5843 5843 5844 5845 5847 5848 5844 5842 5842 5842 5841 5838 5834 5833 5831 5830 5829 5827 5825 5822 5819 5816 5813 5809 5806 5804 5802 5801 5799 5797 5795 5793 5791 5789 5788 5787 5786 5784 5782
5834 5834 5832 5835 5831 5836 5836 5837 5837 5838 5838 5836 5834 5833 5833 5831 5830 5827 5824 5823 5821 5819 5816 5814 5811 5807 5804 5801 5798 5794 5792 5790 5788 5787 5785 5783 5781 5779 5778 5775 5775 5773 5772 5771